Weather History for Plattsmouth, NE

Change the Weather History Date:

Wednesday, February 26, 2014

  Actual Average (KOFF) Record (KOFF)
Temperature  
Mean Temperature 17 °F -  
Max Temperature 34 °F 37 °F 55 °F (2005)
Min Temperature 0 °F 21 °F 1 °F (2014)
Degree Days  
Heating Degree Days 48    
Moisture  
Dew Point 4 °F    
Average Humidity 56    
Maximum Humidity 77    
Minimum Humidity 34    
Precipitation  
Precipitation 0.00 in - - ()
Sea Level Pressure  
Sea Level Pressure 30.15 in    
Wind  
Wind Speed 10 mph (WSW)    
Max Wind Speed 22 mph    
Max Gust Speed 31 mph    
Visibility 10 miles    
Events      
Averages and records for this station are not official NWS values.
T = Trace of Precipitation, MM = Missing Value Source: NWS Daily Summary

Daily Weather History Graph

Daily Weather History Graph

Search for Another Location

Airport:

Trip Planner

Search our weather history database for the weather conditions in past years. The results will help you decide how hot, cold, wet, or windy it might be!

Date:

Astronomy

Feb. 26, 2014 Rise Set
Actual Time 7:02 AM CST 6:11 PM CST
Civil Twilight 6:34 AM CST 6:39 PM CST
Nautical Twilight 6:02 AM CST 7:10 PM CST
Astronomical Twilight 5:31 AM CST 7:42 PM CST
Moon 4:50 AM CST (2/26) 3:26 PM CST (2/26)
Length of Visible Light 12h 04m
Length of Day
11h 09m
Waning Crescent, 10% of the Moon is Illuminated
Feb 26
Waning Crescent
Mar 1
New
Mar 8
First Quarter
Mar 16
Full
Mar 23
Last Quarter

Hourly Weather History & Observations

Time (CST) Temp. Windchill Dew Point Humidity Pressure Visibility Wind Dir Wind Speed Gust Speed Precip Events Conditions
12:15 AM 8.6 °F -7.7 °F -4.2 °F 56% 30.47 in 10.0 mi NW 13.8 mph - N/A   Clear
12:35 AM 7.7 °F -8.2 °F -3.8 °F 59% 30.47 in 10.0 mi NW 12.7 mph - N/A   Clear
12:55 AM 7.5 °F -7.7 °F -4.9 °F 57% 30.46 in 10.0 mi NW 11.5 mph 17.3 mph N/A   Clear
1:15 AM 5.7 °F -7.2 °F -3.6 °F 65% 30.46 in 10.0 mi NW 8.1 mph - N/A   Clear
1:35 AM 5.5 °F -7.4 °F -3.3 °F 67% 30.46 in 10.0 mi NW 8.1 mph - N/A   Clear
1:55 AM 5.2 °F -5.4 °F -3.8 °F 66% 30.45 in 10.0 mi NW 5.8 mph - N/A   Clear
2:15 AM 4.5 °F -7.6 °F -3.6 °F 69% 30.44 in 10.0 mi NW 6.9 mph - N/A   Clear
2:35 AM 3.6 °F -7.3 °F -3.8 °F 71% 30.44 in 10.0 mi WNW 5.8 mph - N/A   Clear
2:55 AM 3.2 °F -7.8 °F -4.0 °F 72% 30.42 in 10.0 mi WNW 5.8 mph - N/A   Clear
3:15 AM 2.8 °F -6.6 °F -4.0 °F 73% 30.41 in 10.0 mi WNW 4.6 mph - N/A   Clear
3:35 AM 2.7 °F -8.4 °F -4.0 °F 74% 30.39 in 10.0 mi WNW 5.8 mph - N/A   Clear
3:55 AM 2.3 °F -7.2 °F -4.4 °F 74% 30.38 in 10.0 mi WNW 4.6 mph - N/A   Clear
4:15 AM 2.3 °F -5.2 °F -4.2 °F 74% 30.37 in 10.0 mi West 3.5 mph - N/A   Clear
4:35 AM 3.2 °F -4.2 °F -4.0 °F 72% 30.36 in 10.0 mi WSW 3.5 mph - N/A   Clear
4:55 AM 2.3 °F - -4.2 °F 74% 30.35 in 10.0 mi Calm Calm - N/A   Clear
5:15 AM 1.0 °F -6.7 °F -5.3 °F 75% 30.35 in 10.0 mi WSW 3.5 mph - N/A   Clear
5:35 AM 1.4 °F -6.2 °F -4.4 °F 77% 30.34 in 10.0 mi WSW 3.5 mph - N/A   Clear
5:55 AM 1.2 °F -6.4 °F -4.5 °F 77% 30.34 in 10.0 mi WSW 3.5 mph - N/A   Clear
6:15 AM 0.9 °F -8.9 °F -4.9 °F 77% 30.34 in 10.0 mi WSW 4.6 mph - N/A   Clear
6:35 AM 1.2 °F -8.5 °F -4.5 °F 77% 30.33 in 10.0 mi West 4.6 mph - N/A   Clear
6:55 AM 1.4 °F -8.3 °F -4.5 °F 76% 30.32 in 10.0 mi WSW 4.6 mph - N/A   Clear
7:15 AM 1.4 °F -8.3 °F -4.9 °F 75% 30.30 in 10.0 mi WSW 4.6 mph - N/A   Clear
7:35 AM 2.1 °F -5.4 °F -4.2 °F 75% 30.29 in 10.0 mi SW 3.5 mph - N/A   Clear
7:55 AM 4.8 °F -5.8 °F -2.2 °F 73% 30.29 in 10.0 mi SW 5.8 mph - N/A   Clear
8:15 AM 6.4 °F -2.4 °F -1.1 °F 71% 30.29 in 10.0 mi SW 4.6 mph - N/A   Clear
8:35 AM 8.2 °F -3.0 °F -0.9 °F 66% 30.29 in 10.0 mi SW 6.9 mph - N/A   Clear
8:55 AM 9.5 °F -3.5 °F -0.2 °F 65% 30.28 in 10.0 mi SSW 9.2 mph - N/A   Clear
9:15 AM 11.1 °F -2.4 °F 1.0 °F 64% 30.27 in 10.0 mi SW 10.4 mph - N/A   Clear
9:35 AM 13.1 °F 0.1 °F 2.5 °F 63% 30.26 in 10.0 mi SW 10.4 mph - N/A   Clear
9:55 AM 14.9 °F 1.6 °F 3.6 °F 61% 30.25 in 10.0 mi SW 11.5 mph - N/A   Clear
10:15 AM 16.3 °F 2.1 °F 3.9 °F 58% 30.24 in 10.0 mi SW 13.8 mph - N/A   Clear
10:35 AM 17.2 °F 3.9 °F 3.9 °F 56% 30.21 in 10.0 mi SW 12.7 mph 18.4 mph N/A   Clear
10:55 AM 19.0 °F 5.6 °F 4.5 °F 53% 30.20 in 10.0 mi SW 13.8 mph - N/A   Clear
11:15 AM 20.3 °F 6.1 °F 3.4 °F 48% 30.18 in 10.0 mi WSW 16.1 mph 21.9 mph N/A   Clear
11:35 AM 22.1 °F 8.5 °F 4.5 °F 47% 30.17 in 10.0 mi SW 16.1 mph 21.9 mph N/A   Clear
11:55 AM 23.0 °F 9.6 °F 4.6 °F 45% 30.15 in 10.0 mi SW 16.1 mph 23.0 mph N/A   Clear
12:15 PM 24.4 °F 11.0 °F 5.0 °F 44% 30.14 in 10.0 mi WSW 17.3 mph 20.7 mph N/A   Clear
12:35 PM 24.4 °F 11.0 °F 7.0 °F 48% 30.13 in 10.0 mi SW 17.3 mph 26.5 mph N/A   Clear
12:55 PM 25.7 °F 11.2 °F 6.8 °F 45% 30.11 in 10.0 mi WSW 21.9 mph 26.5 mph N/A   Clear
1:15 PM 27.5 °F 14.2 °F 6.8 °F 42% 30.08 in 10.0 mi SW 19.6 mph 26.5 mph N/A   Clear
1:35 PM 29.3 °F 17.0 °F 7.5 °F 40% 30.06 in 10.0 mi WSW 18.4 mph 25.3 mph N/A   Clear
1:55 PM 30.6 °F 17.9 °F 7.5 °F 38% 30.02 in 10.0 mi SW 20.7 mph 26.5 mph N/A   Clear
2:15 PM 31.5 °F 19.1 °F 7.5 °F 37% 30.01 in 10.0 mi SW 20.7 mph 26.5 mph N/A   Clear
2:35 PM 31.8 °F 19.9 °F 7.7 °F 36% 29.99 in 10.0 mi WSW 19.6 mph 28.8 mph N/A   Clear
2:55 PM 32.0 °F 20.5 °F 7.9 °F 36% 29.98 in 10.0 mi WSW 18.4 mph 31.1 mph N/A   Clear
3:15 PM 32.4 °F 20.9 °F 8.6 °F 37% 29.97 in 10.0 mi WSW 18.4 mph 28.8 mph N/A   Clear
3:35 PM 33.4 °F 22.0 °F 8.4 °F 35% 29.96 in 10.0 mi WSW 19.6 mph 29.9 mph N/A   Clear
3:55 PM 33.8 °F 23.5 °F 8.1 °F 34% 29.95 in 10.0 mi WSW 16.1 mph 27.6 mph N/A   Clear
4:15 PM 34.2 °F 23.6 °F 9.1 °F 35% 29.94 in 10.0 mi WSW 17.3 mph 25.3 mph N/A   Clear
4:35 PM 34.3 °F 23.5 °F 9.1 °F 35% 29.93 in 10.0 mi WSW 18.4 mph 25.3 mph N/A   Clear
4:55 PM 34.3 °F 23.5 °F 9.0 °F 35% 29.92 in 10.0 mi WSW 18.4 mph 28.8 mph N/A   Clear
5:15 PM 34.7 °F 24.3 °F 9.7 °F 35% 29.91 in 10.0 mi WSW 17.3 mph 23.0 mph N/A   Clear
5:35 PM 34.3 °F 23.9 °F 9.9 °F 36% 29.91 in 10.0 mi WSW 17.3 mph 25.3 mph N/A   Clear
5:50 PM 33.6 °F 24.1 °F 10.8 °F 39% 29.91 in 10.0 mi WSW 13.8 mph 18.4 mph N/A   Clear
6:15 PM 32.2 °F 23.2 °F 10.9 °F 41% 29.90 in 10.0 mi WSW 11.5 mph - N/A   Clear
6:35 PM 32.0 °F 23.0 °F 11.3 °F 42% 29.90 in 10.0 mi WSW 11.5 mph - N/A   Clear
6:55 PM 30.9 °F 21.7 °F 11.7 °F 45% 29.90 in 10.0 mi WSW 11.5 mph - N/A   Clear
7:15 PM 29.8 °F 20.9 °F 12.2 °F 48% 29.90 in 10.0 mi WSW 10.4 mph - N/A   Clear
7:35 PM 29.3 °F 19.6 °F 12.7 °F 50% 29.90 in 10.0 mi WSW 11.5 mph - N/A   Clear
7:55 PM 28.4 °F 19.7 °F 13.1 °F 53% 29.90 in 10.0 mi WSW 9.2 mph - N/A   Clear
8:15 PM 27.9 °F 19.1 °F 13.1 °F 54% 29.91 in 10.0 mi WSW 9.2 mph - N/A   Clear
8:35 PM 26.4 °F 17.3 °F 13.1 °F 57% 29.91 in 10.0 mi West 9.2 mph - N/A   Clear
8:55 PM 26.6 °F 16.8 °F 13.6 °F 58% 29.92 in 10.0 mi West 10.4 mph - N/A   Clear
9:15 PM 25.7 °F 16.4 °F 13.8 °F 61% 29.93 in 10.0 mi WNW 9.2 mph - N/A   Clear
9:35 PM 25.5 °F 16.2 °F 13.5 °F 60% 29.94 in 10.0 mi WNW 9.2 mph - N/A   Clear
9:55 PM 24.4 °F 16.5 °F 13.1 °F 62% 29.94 in 10.0 mi WNW 6.9 mph - N/A   Clear
10:15 PM 25.5 °F 16.2 °F 12.9 °F 59% 29.94 in 10.0 mi NW 9.2 mph - N/A   Clear
10:40 PM 24.8 °F 16.1 °F 12.2 °F 59% 29.95 in 10.0 mi NW 8.1 mph - N/A   Clear
10:55 PM 24.4 °F 15.6 °F 11.7 °F 58% 29.95 in 10.0 mi NW 8.1 mph - N/A   Clear
11:15 PM 26.4 °F 16.0 °F 11.8 °F 54% 29.96 in 10.0 mi NW 11.5 mph - N/A   Clear
11:35 PM 26.4 °F 16.6 °F 11.3 °F 53% 29.97 in 10.0 mi NNW 10.4 mph 17.3 mph N/A   Clear
11:55 PM 26.1 °F 16.8 °F 11.1 °F 53% 29.97 in 10.0 mi NNW 9.2 mph 17.3 mph N/A   Clear